SJ 16-02

导读

实践十六号02星(SJ 16-02)是中国于2016年6月29日在酒泉卫星发射中心,通过长征四号乙运载火箭成功发射的科学试验卫星,由上海航天技术研究院研发。该卫星隶属于中国实践系列科学卫星,主要承担开展空间环境探测、空间技术验证试验的任务,截至2026年仍保持在轨运行状态,运行在近地点584千米、远地点593千米倾角75.0°的近地轨道,为中国空间科学研究积累了宝贵数据。

基本信息
目录编号:
41634
目录名称:
SJ 16-02
国际标识:
2016-043A
轨道中心:
EARTH
卫星名称:
SJ 16-02
卫星全名:
--
卫星状态:
在轨 (已飞行3720 天)
发射日期:
2016-06-29 UTC
国别 :
中国 (CN)
星等 :
--
轨道信息
数据来源 国际轨道数据 AOE轨道数据
星历时间 2026-09-05T15:39:14+0800
5小时前
查看轨道信息
2026-09-04T23:00:00+0800
21小时前
查看轨道信息
半长轴 6964.442km 6964.44km
偏心率 0.000805 0.0007817
轨道倾角 75.002° 75.003°
近地点辐角 203.152° 205.948°
升交点赤经 127.271° 128.584°
平近点角 156.930° 24.351°
近地点 580.698km 580.858km
远地点 591.912km 591.748km
周期 96.403分钟 96.403分钟
每日圈数 14.937342 14.937348
详细信息
使用方式:
暂无
2D轨道图
3D轨道图
轨道高度分析图
轨道倾角分析图
轨道综合分析图
查看轨道综合分析图
交会数据列表
事件ID 空间交会对象 最接近时刻(TCA) 交会距离 交会风险概率(CRP) 交会风险指数(CRI) 操作
CDM_260906-160104-163406-987926
SJ 16-02 (41634)
2026-09-06T
16:01:07+0000
2.106 km
极远距离
1.195814E-6 低风险 0.37